Home   Weather   Aachen   Past weeks

Flag for Germany Past Weather in Aachen, North Rhine-Westphalia, Germany — Yesterday and Last 2 Weeks

Now
42 °F

Passing clouds.


Feels Like: 41 °F
Forecast: 33 / 54 °F
Wind: 3 mph from Northwest

Location: Maastricht Airport Zuid Limburg

Current Time: Apr 28, 2017 at 11:55:00 pm

Latest Report: Apr 28, 2017 at 11:00 pm


Visibility: 28 mi

Pressure: 30.05 "Hg

Humidity: 74%

Dew Point: 35 °F

Location of AachenLocation

Past Weather in Aachen — Graph

°F

Aachen Temperature Yesterday

Maximum temperature yesterday: 50 °F (at 3:00 pm)
Minimum temperature yesterday: 34 °F (at 7:00 am)
Average temperature yesterday: 41 °F

High & Low Weather Summary for the Past Weeks

 TemperatureHumidityPressure
High58 °F (Apr 24, 2:00 pm)98% (Apr 17, 8:00 am)30.66 "Hg (Apr 17, 8:00 am)
Low28 °F (Apr 20, 7:00 am)35% (Apr 20, 5:00 pm)29.74 "Hg (Apr 25, 2:00 am)
Average44 °F70%30.17 "Hg
* Reported Apr 13 10:00 pm — Apr 28 10:00 pm, Aachen, Weather by CustomWeather, © 2017

Note: Actual official high and low records may vary slightly from our data, if they occured in-between our weather recording intervals... More about our weather records

Advertising

Aachen Weather History for the Previous 24 Hours

Scroll right to see more
 ConditionsComfort  
Time TempWeatherWind HumidityBarometerVisibility
10:00 pm
Fri, Apr 28
45 °FPassing clouds.2 mph69%30.03 "Hg28 mi
9:00 pm47 °FPassing clouds.2 mph63%30.01 "Hg28 mi
8:00 pm50 °FPartly sunny.5 mph56%30.00 "Hg25 mi
7:00 pm51 °FOvercast.3 mph62%29.99 "Hg22 mi
6:00 pm50 °FOvercast.5 mph67%29.98 "Hg22 mi
5:00 pm51 °FOvercast.5 mph61%29.97 "Hg19 mi
4:00 pm49 °FOvercast.3 mph67%29.97 "Hg19 mi
3:00 pm51 °FPartly sunny.5 mph58%29.96 "Hg13 mi
2:00 pm48 °FOvercast.5 mph74%29.96 "Hg14 mi
1:00 pm49 °FOvercast.3 mph68%29.95 "Hg11 mi
12:00 pm48 °FOvercast.3 mph74%29.96 "Hg7 mi
11:00 am44 °FOvercast.5 mph77%29.97 "Hg11 mi
10:00 am42 °FOvercast.5 mph77%29.97 "Hg9 mi
9:00 am41 °FOvercast.5 mph78%29.96 "Hg9 mi
8:00 am38 °FOvercast.6 mph84%29.96 "Hg8 mi
7:00 am36 °FOvercast.5 mph88%29.96 "Hg7 mi
6:00 am36 °FOvercast.5 mph89%29.96 "Hg7 mi
5:00 am36 °FOvercast.5 mph89%29.98 "Hg7 mi
4:00 am36 °FFog.5 mph91%29.98 "Hg5 mi
3:00 am34 °FFog.3 mph93%29.99 "Hg6 mi
2:00 am36 °FPassing clouds.2 mph92%30.00 "Hg8 mi
1:00 am36 °FPassing clouds.3 mph92%30.01 "Hg11 mi
12:00 am35 °FPassing clouds.3 mph92%30.02 "Hg14 mi
11:00 pm
Thu, Apr 27
38 °FClear.2 mph89%30.02 "Hg19 mi
Weather by CustomWeather, © 2017

See weather overviewHow to use our weather pages